Date String (YYYY-MM-DD hh:mm:ss) UTC,Instrument flags,Ambient pressure (hPa),Sample flow (lpm),Bypass flow (lpm),Sample temperature (°C),Ambient temperature (°C),ASC tube jacket temperature (°C),LED temperature (°C),Box temperature (°C),Sample RH (%),Span deviation,Mass concentration (μg/m³),Mass concentration (μg/m³),Mass concentration (μg/m³)
DateTimeUTC,F1_M11,P_M11,Q1_M11,Q2_M11,T1_M11,T2_M11,T3_M11,T4_M11,T5_M11,U1_M11,ZSPAN_M11,X2_M11,X0_M11,X1_M11
2023-02-27 21:00:00,,0815.1,5.00,0.00,22.2,20.6,00.0,31.0,23.8,09.3,0000.0,0000.45,0001.01,0000.24
2023-02-27 21:01:00,,0815.0,5.00,0.00,22.2,20.6,00.0,31.0,23.8,09.3,0000.0,0000.49,0001.16,0000.26
2023-02-27 21:02:00,,0814.9,5.00,0.00,22.1,20.5,00.0,31.0,23.8,09.0,0000.0,0000.47,0001.60,0000.26
2023-02-27 21:03:00,,0815.0,5.00,0.00,22.1,20.5,00.0,31.0,23.8,08.9,0000.0,0000.43,0001.42,0000.27
2023-02-27 21:04:00,,0815.1,5.00,0.00,22.1,20.4,00.0,30.9,23.7,08.9,0000.0,0000.44,0001.47,0000.27
2023-02-27 21:05:00,,0815.1,5.00,0.00,22.1,20.4,00.0,30.9,23.7,09.1,0000.0,0000.48,0001.94,0000.27
2023-02-27 21:06:00,,0815.1,5.00,0.00,22.1,20.4,00.0,30.9,23.7,09.0,0000.0,0000.50,0002.05,0000.27
2023-02-27 21:07:00,,0815.2,5.02,0.00,22.0,20.3,00.0,30.9,23.6,09.1,0000.0,0000.49,0002.03,0000.27
2023-02-27 21:08:00,,0815.2,5.00,0.00,22.0,20.4,00.0,30.9,23.7,09.5,0000.0,0000.50,0002.08,0000.28
2023-02-27 21:09:00,,0815.2,5.01,0.00,22.1,21.3,00.0,30.9,23.9,09.4,0000.0,0000.51,0002.16,0000.28
2023-02-27 21:10:00,,0815.1,4.98,0.00,22.2,22.5,00.0,30.9,24.3,09.1,0000.0,0000.52,0002.12,0000.27
2023-02-27 21:11:00,,0815.1,4.96,0.00,22.4,23.2,00.0,30.9,24.5,09.0,0000.0,0000.56,0002.20,0000.27
2023-02-27 21:12:00,,0815.1,5.00,0.00,22.4,22.8,00.0,31.0,24.4,08.8,0000.0,0000.54,0002.05,0000.26
2023-02-27 21:13:00,,0815.0,5.00,0.00,22.4,22.3,00.0,31.0,24.4,08.9,0000.0,0000.54,0001.70,0000.27
2023-02-27 21:14:00,,0815.1,4.99,0.00,22.5,22.0,00.0,31.0,24.3,08.9,0000.0,0000.54,0001.76,0000.27
2023-02-27 21:15:00,,0815.1,5.02,0.00,22.5,21.7,00.0,31.1,24.2,09.0,0000.0,0000.57,0001.90,0000.27
2023-02-27 21:16:00,,0815.1,5.00,0.00,22.5,21.5,00.0,31.1,24.2,08.9,0000.0,0000.59,0001.60,0000.27
2023-02-27 21:17:00,,0815.1,5.00,0.00,22.4,21.3,00.0,31.1,24.1,08.7,0000.0,0000.63,0001.70,0000.27
2023-02-27 21:18:00,,0815.2,5.00,0.00,22.4,21.2,00.0,31.1,24.1,08.8,0000.0,0000.66,0001.77,0000.27
2023-02-27 21:19:00,,0815.1,5.00,0.00,22.4,21.1,00.0,31.1,24.1,08.8,0000.0,0000.64,0001.70,0000.27
2023-02-27 21:20:00,,0815.1,5.01,0.00,22.4,21.0,00.0,31.1,24.0,09.0,0000.0,0000.67,0001.66,0000.27
2023-02-27 21:21:00,,0815.1,5.01,0.00,22.4,20.9,00.0,31.1,24.0,09.1,0000.0,0000.67,0001.66,0000.28
2023-02-27 21:22:00,,0815.1,5.00,0.00,22.3,20.9,00.0,31.1,24.0,09.1,0000.0,0000.62,0001.56,0000.28
2023-02-27 21:23:00,,0815.1,5.01,0.00,22.3,20.8,00.0,31.1,23.9,09.0,0000.0,0000.61,0001.54,0000.28
2023-02-27 21:24:00,,0815.1,5.00,0.00,22.3,20.8,00.0,31.1,23.9,09.4,0000.0,0000.58,0001.54,0000.27
2023-02-27 21:25:00,,0815.1,5.00,0.00,22.3,20.7,00.0,31.1,23.9,09.1,0000.0,0000.60,0001.74,0000.27
2023-02-27 21:26:00,,0815.3,5.00,0.00,22.3,20.7,00.0,31.0,23.9,08.9,0000.0,0000.58,0001.60,0000.27
2023-02-27 21:27:00,,0815.2,5.00,0.00,22.2,20.6,00.0,31.0,23.9,08.9,0000.0,0000.56,0001.57,0000.27
2023-02-27 21:28:00,,0815.2,5.01,0.00,22.2,20.6,00.0,31.0,23.9,08.9,0000.0,0000.53,0001.59,0000.27
2023-02-27 21:29:00,,0815.3,5.00,0.00,22.2,20.6,00.0,31.0,23.9,09.0,0000.0,0000.52,0002.21,0000.26
2023-02-27 21:30:00,,0815.1,4.99,0.00,22.2,20.5,00.0,31.0,23.9,09.0,0000.0,0000.54,0002.37,0000.27
2023-02-27 21:31:00,,0815.2,5.01,0.00,22.2,20.5,00.0,31.0,23.9,08.8,0000.0,0000.52,0002.34,0000.27
2023-02-27 21:32:00,,0815.2,5.00,0.00,22.2,20.5,00.0,31.0,23.8,08.7,0000.0,0000.52,0002.33,0000.28
2023-02-27 21:33:00,,0815.3,5.01,0.00,22.1,20.5,00.0,31.0,23.8,08.7,0000.0,0000.54,0002.37,0000.29
2023-02-27 21:34:00,,0815.1,5.00,0.00,22.1,20.5,00.0,30.9,23.8,08.8,0000.0,0000.55,0002.40,0000.29
2023-02-27 21:35:00,,0815.2,5.01,0.00,22.1,20.5,00.0,30.9,23.7,08.6,0000.0,0000.57,0002.31,0000.30
2023-02-27 21:36:00,,0815.2,5.00,0.00,22.1,20.5,00.0,30.9,23.8,08.8,0000.0,0000.60,0002.13,0000.30
2023-02-27 21:37:00,,0815.2,5.01,0.00,22.1,21.1,00.0,30.9,23.9,08.9,0000.0,0000.63,0002.24,0000.30
2023-02-27 21:38:00,,0815.4,4.98,0.00,22.2,22.3,00.0,30.9,24.2,08.5,0000.0,0000.64,0002.20,0000.30
2023-02-27 21:39:00,,0815.3,5.03,0.00,22.4,23.2,00.0,30.9,24.5,08.5,0000.0,0000.64,0002.10,0000.31
2023-02-27 21:40:00,,0815.3,4.99,0.00,22.5,22.9,00.0,31.0,24.5,08.4,0000.0,0000.66,0001.54,0000.31
2023-02-27 21:41:00,,0815.2,5.00,0.00,22.5,22.4,00.0,31.0,24.4,08.6,0000.0,0000.67,0001.41,0000.31
2023-02-27 21:42:00,,0815.2,5.00,0.00,22.5,22.0,00.0,31.1,24.3,08.8,0000.0,0000.67,0001.39,0000.30
2023-02-27 21:43:00,,0815.3,5.01,0.00,22.5,21.7,00.0,31.1,24.2,08.7,0000.0,0000.69,0001.40,0000.30
2023-02-27 21:44:00,,0815.2,4.99,0.00,22.5,21.5,00.0,31.1,24.2,08.8,0000.0,0000.67,0001.36,0000.29
2023-02-27 21:45:00,,0815.1,5.00,0.00,22.5,21.4,00.0,31.1,24.2,08.5,0000.0,0000.67,0001.40,0000.30
2023-02-27 21:46:00,,0815.1,5.00,0.00,22.4,21.3,00.0,31.1,24.1,08.4,0000.0,0000.69,0001.84,0000.30
2023-02-27 21:47:00,,0815.2,5.00,0.00,22.4,21.2,00.0,31.1,24.1,08.6,0000.0,0000.65,0001.77,0000.31
2023-02-27 21:48:00,,0815.5,5.00,0.00,22.4,21.1,00.0,31.1,24.1,08.3,0000.0,0000.62,0001.76,0000.30
2023-02-27 21:49:00,,0815.1,5.00,0.00,22.4,21.0,00.0,31.1,24.1,08.6,0000.0,0000.62,0001.74,0000.30
2023-02-27 21:50:00,,0815.1,5.01,0.00,22.4,20.9,00.0,31.1,24.1,08.7,0000.0,0000.64,0001.77,0000.30
2023-02-27 21:51:00,,0815.1,4.99,0.00,22.4,20.9,00.0,31.1,24.1,08.4,0000.0,0000.61,0001.71,0000.30
2023-02-27 21:52:00,,0815.1,5.00,0.00,22.4,20.8,00.0,31.1,24.0,08.3,0000.0,0000.59,0001.66,0000.30
2023-02-27 21:53:00,,0815.2,5.02,0.00,22.3,20.8,00.0,31.1,24.0,08.2,0000.0,0000.58,0002.47,0000.30
2023-02-27 21:54:00,,0815.6,5.00,0.00,22.3,20.8,00.0,31.1,24.0,08.7,0000.0,0000.60,0002.66,0000.31
2023-02-27 21:55:00,,0815.1,4.99,0.00,22.3,20.7,00.0,31.1,24.0,08.6,0000.0,0000.63,0002.73,0000.31
2023-02-27 21:56:00,,0815.3,4.99,0.00,22.3,20.7,00.0,31.1,24.0,08.7,0000.0,0000.63,0002.65,0000.31
2023-02-27 21:57:00,,0815.1,4.99,0.00,22.3,20.6,00.0,31.1,24.0,08.5,0000.0,0000.69,0002.49,0000.31
2023-02-27 21:58:00,,0815.1,5.01,0.00,22.2,20.6,00.0,31.1,23.9,08.5,0000.0,0000.75,0002.71,0000.31
2023-02-27 21:59:00,,0815.1,5.01,0.00,22.2,20.6,00.0,31.0,23.9,08.3,0000.0,0000.76,0002.78,0000.32
